Overview Statistics Trail Chart Weather Telemetry Raw packets
 

This is the latest recevied weather packets stored in our database for station/object S56OA-13. If no packets are shown the sender has not sent any weather packets the latest 10 day(s).

<< 1 2 3 4 5 6 >>
Time Temp. Humidity Pressure Rain* Wind** Luminosity Snow
1788582491 20° C 40% 877.2 hPa - - - -
1788580690 19.44° C 41% 876.7 hPa - - - -
1788578888 20° C 40% 877 hPa - - - -
1788577087 19.44° C 41% 875.7 hPa - - - -
1788575286 20° C 41% 876.1 hPa - - - -
1788573484 19.44° C 41% 875.8 hPa - - - -
1788571683 19.44° C 41% 875.4 hPa - - - -
1788569881 19.44° C 41% 874.8 hPa - - - -
1788568080 18.89° C 41% 873.1 hPa - - - -
1788566278 19.44° C 41% 874.7 hPa - - - -
1788564477 19.44° C 41% 875.5 hPa - - - -
1788562675 20° C 41% 876.9 hPa - - - -
1788560907 20° C 41% 876.5 hPa - - - -
1788560874 20° C 41% 876.5 hPa - - - -
1788559072 20° C 41% 877.1 hPa - - - -
1788557272 20° C 41% 877.1 hPa - - - -
1788555479 19.44° C 41% 876.2 hPa - - - -
1788553648 19.44° C 41% 876.2 hPa - - - -
1788551847 20° C 41% 876.8 hPa - - - -
1788550046 19.44° C 42% 876.2 hPa - - - -
1788548244 19.44° C 42% 876.2 hPa - - - -
1788546443 20° C 43% 877.7 hPa - - - -
1788544641 20.56° C 44% 880.9 hPa - - - -
1788542840 24.44° C 43% 894.5 hPa - - - -
1788541039 27.22° C 43% 905.9 hPa - - - -

* Rain since midnight (hover to see other rain measurements)
** Current wind speed in m/s (hover to see current wind gust speed)